Luxor, Egypt

7:53 PM EET on August 30, 2016 (GMT +0200)
Luxor International

Weather History for HELX - October, 2012

Change the Weather History Date:

Wednesday, October 3, 2012

  Actual Average Record
Temperature  
Mean Temperature 91 °F -  
Max Temperature 104 °F 90 °F 107 °F (2010)
Min Temperature 78 °F 64 °F 62 °F (2000)
Cooling Degree Days 26    
Growing Degree Days 41 (Base 50)    
Moisture  
Dew Point 59 °F    
Average Humidity 34    
Maximum Humidity 54    
Minimum Humidity 18    
Precipitation  
Precipitation 0.00 in 0.00 in - ()
Sea Level Pressure  
Sea Level Pressure 29.88 in    
Wind  
Wind Speed 3 mph ()    
Max Wind Speed 8 mph    
Max Gust Speed -    
Visibility 6.0 miles    
Events      
Averages and records for this station are not official NWS values.
T = Trace of Precipitation, MM = Missing Value Source: Averaged Metar Reports

Daily Weather History Graph

Daily Weather History Graph

Search for Another Location

Airport or City:

Trip Planner

Search our weather history database for the weather conditions in past years. The results will help you decide how hot, cold, wet, or windy it might be!

Date:

Astronomy

Oct. 03, 2012 Rise Set
Actual Time 5:42 AM EET 5:33 PM EET
Civil Twilight 5:19 AM EET 5:56 PM EET
Nautical Twilight 4:52 AM EET 6:23 PM EET
Astronomical Twilight 4:26 AM EET 6:49 PM EET
Moon 7:35 PM EET (10/3) 8:24 AM EET (10/3)
Length of Visible Light 12h 37m
Length of Day
11h 51m
Waning Gibbous, 90% of the Moon is Illuminated
Oct 3
Waning Gibbous
Oct 8
Last Quarter
Oct 15
New
Oct 22
First Quarter
Oct 29
Full

Hourly Weather History & Observations

Time (EET) Temp. Heat Index Dew Point Humidity Pressure Visibility Wind Dir Wind Speed Gust Speed Precip Events Conditions
12:00 AM 86.0 °F 84.9 °F 57.2 °F 37% 29.89 in 6.2 mi SSW 3.5 mph - N/A   Scattered Clouds
1:00 AM 84.2 °F 82.8 °F 53.6 °F 35% 29.89 in 6.2 mi SW 2.3 mph - N/A   Scattered Clouds
2:00 AM 85 °F - 54 °F 24% 29.88 in 6 mi SSW 4.6 mph - -   Partly Cloudy
2:00 AM 86.0 °F 84.2 °F 53.6 °F 33% 29.89 in 6.2 mi SW 4.6 mph - N/A   Scattered Clouds
3:00 AM 84.2 °F 82.8 °F 53.6 °F 35% 29.89 in - WSW 4.6 mph - N/A   Clear
4:00 AM 82.4 °F 81.7 °F 55.4 °F 39% 29.89 in - South 8.1 mph - N/A   Clear
5:00 AM 84.2 °F 83.5 °F 57.2 °F 40% 29.89 in - South 4.6 mph - N/A   Clear
6:00 AM 80.6 °F 80.8 °F 57.2 °F 45% 29.92 in - WSW 3.5 mph - N/A   Clear
7:00 AM 78.8 °F - 60.8 °F 54% 29.92 in 6.2 mi WNW 2.3 mph - N/A   Scattered Clouds
8:00 AM 81 °F - 61 °F 40% 29.93 in 6 mi West 6.9 mph - -   Partly Cloudy
8:00 AM 80.6 °F 81.5 °F 60.8 °F 51% 29.92 in 6.2 mi West 6.9 mph - N/A   Scattered Clouds
9:00 AM 87.8 °F 88.5 °F 62.6 °F 43% 29.95 in 6.2 mi SSW 2.3 mph - N/A   Scattered Clouds
10:00 AM 93.2 °F 93.3 °F 60.8 °F 34% 29.92 in - Calm Calm - N/A   Clear
11:00 AM 96.8 °F 98.0 °F 62.6 °F 32% 29.92 in - Calm Calm - N/A   Clear
12:00 PM 98.6 °F 101.0 °F 64.4 °F 32% 29.89 in 5.0 mi NNW 3.5 mph - N/A   Unknown
1:00 PM 100.4 °F 101.3 °F 60.8 °F 27% 29.86 in - NW 5.8 mph - N/A   Clear
2:00 PM 101 °F - 61 °F 18% 29.83 in 6 mi NW 5.8 mph - -   Scattered Clouds
2:00 PM 96.8 °F 97.1 °F 60.8 °F 30% 29.83 in - NW 5.8 mph - N/A   Clear
3:00 PM 104.0 °F 105.3 °F 60.8 °F 24% 29.83 in - NW 3.5 mph - N/A   Clear
4:00 PM 102.2 °F 103.6 °F 60.8 °F 26% 29.80 in - NNW 2.3 mph - N/A   Clear
5:00 PM 100.4 °F 102.4 °F 62.6 °F 29% 29.83 in - Calm Calm - N/A   Clear
6:00 PM 95.0 °F 95.2 °F 60.8 °F 32% 29.83 in - West 4.6 mph - N/A   Clear
7:00 PM 91.4 °F 89.9 °F 57.2 °F 31% 29.83 in - WSW 2.3 mph - N/A   Clear
8:00 PM 90 °F - 57 °F 23% 29.84 in 6 mi SSW 3.5 mph - -  
8:00 PM 89.6 °F 88.1 °F 57.2 °F 33% 29.86 in - SSW 3.5 mph - N/A   Clear
9:00 PM 87.8 °F 86.5 °F 57.2 °F 35% 29.86 in - SSW 4.6 mph - N/A   Clear
10:00 PM 87.8 °F 86.5 °F 57.2 °F 35% 29.86 in - SE 4.6 mph - N/A   Clear
11:00 PM 86.0 °F 84.2 °F 53.6 °F 33% 29.86 in - Calm Calm - N/A   Clear